Location: Unspecified
(33.9360°N, 83.4200°W)
Time: 12:44:46
(UTC-05:00)

Daily predictions for brighter satellites

Satellite Brightness Start Highest point End
(mag) Time Altitude Azimuth Time Altitude Azimuth Time Altitude Azimuth
USA 215 3.5 18:35:01 10° NE 18:41:25 56° SE 18:47:47 10° SSW
NOSS 3-2 (C) 3.4 18:37:49 10° SSW 18:43:36 81° ESE 18:49:57 10° NNE
Cosmos 1371 Rocket 4.1 18:38:44 10° N 18:43:57 59° ENE 18:49:10 10° SSE
Cosmos 1980 4.1 18:39:18 10° N 18:44:39 41° ENE 18:49:58 10° SE
EO 1 Del DPAF 3.6 18:42:01 10° NNE 18:45:41 44° E 18:49:20 10° S
Cosmos 1867 4.5 18:40:51 10° NW 18:46:10 56° WSW 18:51:27 10° S
Cosmos 1733 Rocket 3.3 18:43:19 10° SSE 18:47:27 46° E 18:51:35 10° NNE
NOSS 0 Rocket 4.0 18:42:33 10° NNW 18:48:40 60° ENE 18:54:47 10° SE
Meteor 1-27 Rocket 3.9 18:43:28 10° N 18:49:22 86° E 18:55:18 10° S
OAO 2 Rocket 4.0 18:46:04 10° SW 18:50:39 39° SSE 18:55:13 10° E
Iridium 2 4.2 18:51:18 10° N 18:55:07 66° W 18:58:52 10° S
SKYMED 2 4.4 18:53:08 10° N 18:57:22 55° WNW 19:01:36 10° SSW
MOS 1 4.3 18:52:20 10° SSE 18:57:58 76° ENE 19:03:38 10° N
DELTA 2 R/B (1) 4.2 18:52:44 10° WNW 18:58:10 57° SSW 19:03:36 10° SE
Okean 3 4.5 18:57:35 10° NNE 19:01:00 24° ENE 19:04:25 10° SE
Lacrosse 4 Rocket 4.2 18:58:28 10° NW 19:01:54 24° WSW 19:05:23 10° SSW
Landsat 4 3.8 18:58:22 10° N 19:02:06 80° WNW 19:05:51 10° SSW
Shenzhou-11 Module 2.3 19:00:28 10° NW 19:03:23 48° NNE 19:05:43 14° E
CZ-4 R/B 3.9 19:03:42 10° SSW 19:07:13 27° W 19:10:43 10° NW
SJ-6B 4.1 19:05:35 10° ESE 19:08:17 19° ENE 19:11:02 10° NNE
SPOT 3 Rocket 3.5 19:03:17 10° SSE 19:08:26 73° ENE 19:13:38 10° N
DELTA 2 R/B (2) 3.9 19:07:16 10° NW 19:08:50 28° NNE 19:09:22 23° NE
DNEPR-1 R/B 4.3 19:04:53 10° SW 19:09:00 51° WNW 19:13:09 10° NNE
Cosmos 2056 Rocket 3.6 19:07:54 10° NNW 19:13:21 88° ENE 19:18:46 10° SSE
Cosmos 1238 4.3 19:11:17 10° S 19:14:20 89° E 19:17:55 10° N
CENTAUR R/B 2.5 19:10:31 10° S 19:16:06 55° ESE 19:22:27 10° NE
Cosmos 2233 Rocket 4.1 19:10:10 10° N 19:16:28 82° W 19:22:40 10° S
MOS 1-B Rocket 4.4 19:10:02 10° S 19:16:50 73° WSW 19:22:46 10° NNW
Cosmos 2219 Rocket 3.1 19:11:27 10° NNW 19:16:57 52° WSW 19:22:23 10° S
Meteor 1-14 Rocket 4.3 19:12:43 10° S 19:18:20 62° E 19:24:06 10° NNE
Cosmos 1452 Rocket 4.0 19:14:50 10° N 19:19:41 36° ENE 19:24:28 10° SE
Cosmos 1048 Rocket 4.4 19:18:55 10° S 19:23:51 40° E 19:28:47 10° NNE
Tiangong 2 2.6 19:21:50 10° NW 19:24:27 23° NNE 19:25:22 20° NE
Cosmos 2227 Rocket 3.1 19:19:12 10° SW 19:24:40 51° WNW 19:30:10 10° N
FREGAT/IRIS 2.5 19:24:09 10° SSE 19:27:03 57° ENE 19:29:58 10° N
Cosmos 405 3.7 19:24:32 10° SSW 19:27:57 54° W 19:31:23 10° N
Sich 1 Rocket 4.0 19:23:58 10° SSE 19:28:12 41° E 19:32:25 10° NNE
Cosmos 2237 Rocket 2.2 19:24:01 10° NNW 19:29:40 87° WSW 19:35:17 10° SSE
Geosat 4.4 19:25:36 10° NE 19:30:21 41° ESE 19:35:04 10° S
Cosmos 1464 Rocket 4.0 19:25:28 10° N 19:31:26 53° E 19:37:23 10° SSE
H-2A R/B 2.9 19:27:46 10° S 19:31:41 78° W 19:35:36 10° NNW
SL-16 R/B 2.7 19:26:47 10° N 19:32:01 37° ENE 19:35:31 19° ESE
Cosmos 1378 Rocket 3.7 19:31:52 10° N 19:36:07 47° E 19:40:23 10° SSE
Cosmos 1782 Rocket 4.0 19:32:07 10° SSE 19:36:12 37° E 19:40:17 10° NNE
Cosmos 158 Rocket 3.7 19:32:25 10° SSW 19:37:20 86° ESE 19:42:13 10° NNE
Meteor 1-20 Rocket 4.1 19:31:56 10° S 19:37:33 76° E 19:43:19 10° NNE
Cosmos 2297 Rocket 3.3 19:33:38 10° SW 19:39:00 45° WNW 19:44:25 10° N
Iridium 4 Rocket 3.2 19:35:47 10° N 19:40:36 60° E 19:45:00 10° SSE
Cosmos 1072 Rocket 4.4 19:35:32 10° N 19:41:44 72° E 19:48:00 10° SSE
Cosmos 1420 Rocket 4.2 19:37:15 10° N 19:42:21 47° ENE 19:45:52 19° SE
CZ-2D R/B 3.4 19:43:09 32° SE 19:44:32 47° ENE 19:48:16 10° N
Meteor 1-18 Rocket 4.1 19:42:05 10° N 19:47:40 66° E 19:53:09 10° SSE
Lacrosse 5 2.1 19:47:12 10° NW 19:52:13 68° SW 19:56:08 16° SSE
Cosmos 1812 3.6 19:51:41 10° NNW 19:55:27 50° W 19:59:11 10° S
FALCON 9 R/B 4.4 19:50:21 10° W 19:58:21 89° N 20:15:44 29° E
ERS-2 3.3 19:55:23 10° S 19:58:54 44° W 20:02:27 10° NNW
CRYOSAT 2 4.2 19:57:22 10° N 20:02:16 78° E 20:07:06 10° S
Cosmos 44 3.3 19:59:47 10° NNW 20:04:51 65° ENE 20:05:50 53° ESE
BREEZE-M DEB (TANK) 2.8 20:02:18 10° SW 20:05:01 82° SE 20:05:47 57° NE
Cosmos 2034 Rocket 3.9 19:59:07 10° N 20:05:30 75° E 20:11:50 10° S
Thor Agena Rocket 3.7 20:00:47 10° N 20:05:51 71° WNW 20:10:52 10° SSW
Gbstr 26 Del rocket 4.0 20:03:37 10° SSW 20:05:40 28° S 20:05:40 28° S
Cosmos 1891 Rocket 4.4 20:02:58 10° N 20:09:12 85° W 20:15:16 10° S
Cosmos 1437 Rocket 2.7 20:05:18 10° S 20:09:18 85° W 20:09:55 63° N
USA 32 4.2 20:05:17 10° S 20:10:29 71° W 20:15:43 10° N
Envisat 2.8 20:06:11 10° SSE 20:11:15 85° ENE 20:16:21 10° N
Cosmos 1269 Rocket 4.0 20:09:49 10° SSW 20:15:05 84° WNW 20:18:51 20° NNE
Cosmos 1816 Rocket 4.4 20:12:56 10° S 20:19:16 80° E 20:25:39 10° N
SeaSat 1 2.4 20:18:12 43° SSE 20:19:49 79° WSW 20:24:46 10° NNW
Cosmos 2346 Rocket 4.3 20:15:53 10° S 20:22:03 70° E 20:28:13 10° N
Cosmos 2227 4.0 20:17:30 10° SSW 20:23:14 78° ESE 20:23:59 66° NE
USA 215 4.4 20:18:49 12° NNE 20:24:11 38° NW 20:30:06 10° WSW
Resurs 01 Rocket 3.5 20:33:23 21° N 20:33:23 21° N 20:34:53 10° N
OAO 2 Rocket 3.6 20:30:18 10° W 20:34:20 60° W 20:34:20 60° W
USA 267 4.1 20:56:05 38° N 20:56:05 38° N 21:00:40 10° NNW
CENTAUR R/B 4.4 21:02:18 10° W 21:07:10 24° NW 21:11:51 12° N
SL-16 R/B 4.1 21:11:22 10° NW 21:15:51 25° WSW 21:17:32 21° SW
